GW5627 Weather Reports


time (UTC)temp
F
wind
direction
speed
knots
gust
knots
rain 1hr
in
rain 24hr
in
rain mn
in
humidity
%
barometer
mb
20260504185541 59 317 4.3 11.3 0.00 0.00 0.00 48 1010.5
20260504185038 59 113 0.0 3.5 0.00 0.00 0.00 47 1010.4
20260504184533 58 340 4.3 6.1 0.00 0.00 0.00 48 1010.9
20260504184029 57 200 0.0 4.3 0.00 0.00 0.00 50 1010.9
20260504183526 58 298 3.5 6.1 0.00 0.00 0.00 50 1010.9
20260504183024 58 356 2.6 6.1 0.00 0.00 0.00 52 1011.3
20260504182521 58 2 5.2 7.8 0.00 0.00 0.00 53 1011.0
20260504182018 58 100 1.7 3.5 0.00 0.00 0.00 54 1011.5
20260504181515 57 302 5.2 8.7 0.00 0.00 0.00 53 1011.5
20260504181014 56 343 4.3 6.1 0.00 0.00 0.00 57 1011.4
20260504180512 55 0 0.0 6.1 0.00 0.00 0.00 54 1011.5
20260504180010 54 270 0.0 3.5 0.00 0.00 0.00 53 1011.7
20260504175507 53 312 1.7 4.3 0.00 0.00 0.00 54 1011.8
20260504175004 53 260 2.6 7.8 0.00 0.00 0.00 54 1011.5
20260504174502 53 262 2.6 7.8 0.00 0.00 0.00 54 1011.5
20260504173959 54 283 1.7 8.7 0.00 0.00 0.00 55 1011.7
20260504173455 55 270 5.2 6.1 0.00 0.00 0.00 55 1011.8
20260504172953 54 202 2.6 6.1 0.00 0.00 0.00 55 1011.9
20260504172449 54 276 2.6 9.6 0.00 0.00 0.00 54 1012.2
20260504171945 54 253 3.5 8.7 0.00 0.00 0.00 54 1012.0
20260504171443 55 280 2.6 10.4 0.00 0.00 0.00 53 1011.9
20260504170939 55 319 3.5 4.3 0.00 0.00 0.00 55 1012.0
20260504170435 55 253 3.5 6.1 0.00 0.00 0.00 53 1012.2
20260504160354 53 112 7.8 10.4 0.00 0.00 0.00 54 1012.3
20260504150819 51 96 2.6 5.2 0.00 0.00 0.00 53 1012.4
20260504150316 52 130 1.7 2.6 0.00 0.00 0.00 52 1012.5
20260504141246 49 108 2.6 4.3 0.00 0.00 0.00 47 1012.8
20260504140742 49 90 1.7 5.2 0.00 0.00 0.00 48 1012.8
20260504140238 49 127 2.6 6.1 0.00 0.00 0.00 47 1012.9
20260504130707 41 132 1.7 2.6 0.00 0.00 0.00 57 1012.7
20260504130203 41 106 0.0 3.5 0.00 0.00 0.00 58 1012.3
20260504120127 40 171 1.7 5.2 0.00 0.00 0.00 52 1012.2
20260504110554 42 122 2.6 3.5 0.00 0.00 0.00 50 1012.2
20260504100516 39 138 2.6 4.3 0.00 0.00 0.00 56 1011.0
20260504081909 39 123 0.9 5.2 0.00 0.00 0.00 56 1011.8
20260504081406 40 140 5.2 5.2 0.00 0.00 0.00 53 1011.8
20260504080902 40 142 4.3 5.2 0.00 0.00 0.00 53 1011.8
20260504080359 41 120 2.6 5.2 0.00 0.00 0.00 53 1012.0
20260504070327 41 129 1.7 4.3 0.00 0.00 0.00 52 1012.3
20260504060247 43 123 1.7 2.6 0.00 0.00 0.00 48 1012.5
20260504050715 44 131 0.9 2.6 0.00 0.00 0.00 44 1012.9
20260504050212 45 135 1.7 4.3 0.00 0.00 0.00 44 1013.2
20260504045709 45 114 0.0 1.7 0.00 0.00 0.00 43 1013.0
20260504045209 46 139 0.9 1.7 0.00 0.00 0.00 42 1013.0
20260504044708 46 126 0.0 2.6 0.00 0.00 0.00 42 1013.3
20260504044204 46 135 3.5 3.5 0.00 0.00 0.00 42 1013.0
20260504043701 46 143 0.0 4.3 0.00 0.00 0.00 42 1013.2
20260504043158 46 191 0.9 2.6 0.00 0.00 0.00 43 1013.0
20260504042655 46 196 0.0 2.6 0.00 0.00 0.00 42 1013.4
20260504042152 48 117 1.7 2.6 0.00 0.00 0.00 38 1013.5
20260504041648 48 165 0.0 1.7 0.00 0.00 0.00 37 1013.2
20260504041144 49 135 0.0 1.7 0.00 0.00 0.00 36 1013.3
20260504040641 49 135 0.0 2.6 0.00 0.00 0.00 36 1013.3
20260504040138 49 166 0.0 1.7 0.00 0.00 0.00 36 1013.2
20260504035635 50 191 0.9 2.6 0.00 0.00 0.00 36 1012.9
20260504035131 50 190 0.0 1.7 0.00 0.00 0.00 36 1012.9
20260504034629 49 203 2.6 2.6 0.00 0.00 0.00 36 1013.0
20260504034126 49 180 0.9 1.7 0.00 0.00 0.00 35 1013.2
20260504033624 50 187 0.0 1.7 0.00 0.00 0.00 35 1013.3
20260504033121 49 195 0.0 0.9 0.00 0.00 0.00 35 1013.0
20260504032618 50 210 1.7 1.7 0.00 0.00 0.00 35 1013.4
20260504032115 49 203 0.0 1.7 0.00 0.00 0.00 35 1013.3
20260504031612 49 261 0.0 1.7 0.00 0.00 0.00 35 1013.2
20260504031108 50 352 0.0 2.6 0.00 0.00 0.00 35 1013.0
20260504030605 49 249 0.0 1.7 0.00 0.00 0.00 35 1013.0
20260504025558 50 292 1.7 2.6 0.00 0.00 0.00 35 1013.0
20260504025055 50 8 0.0 1.7 0.00 0.00 0.00 35 1013.0
20260504024552 50 255 0.9 2.6 0.00 0.00 0.00 35 1012.7
20260504024049 50 209 0.0 1.7 0.00 0.00 0.00 34 1013.0
20260504023546 50 261 0.0 0.9 0.00 0.00 0.00 34 1012.7
20260504023042 50 188 0.0 0.0 0.00 0.00 0.00 34 1012.9
20260504022538 51 261 0.0 0.0 0.00 0.00 0.00 34 1012.9
20260504022034 51 259 0.0 1.7 0.00 0.00 0.00 34 1012.9
20260504021532 51 195 0.0 1.7 0.00 0.00 0.00 34 1012.8
20260504021028 52 270 0.0 1.7 0.00 0.00 0.00 34 1012.7
20260504020525 52 195 0.0 2.6 0.00 0.00 0.00 35 1012.7
20260504020022 53 303 0.9 1.7 0.00 0.00 0.00 35 1012.7
20260504015518 54 240 0.0 1.7 0.00 0.00 0.00 34 1012.7
20260504015014 55 270 2.6 4.3 0.00 0.00 0.00 33 1012.5
20260504014510 55 278 1.7 4.3 0.00 0.00 0.00 32 1012.8
20260504014008 55 243 2.6 4.3 0.00 0.00 0.00 33 1012.7
20260504013506 56 330 3.5 3.5 0.00 0.00 0.00 33 1012.4
20260504013001 56 262 0.9 4.3 0.00 0.00 0.00 33 1012.9
20260504012500 56 270 2.6 6.1 0.00 0.00 0.00 33 1012.7
20260504011958 57 234 4.3 5.2 0.00 0.00 0.00 32 1012.8
20260504011454 57 253 2.6 8.7 0.00 0.00 0.00 32 1012.7
20260504010949 57 286 2.6 5.2 0.00 0.00 0.00 32 1012.8
20260504010446 58 245 2.6 7.0 0.00 0.00 0.00 32 1013.0
20260504005942 58 250 2.6 7.0 0.00 0.00 0.00 32 1012.9
20260504005439 58 265 3.5 7.0 0.00 0.00 0.00 31 1012.7
20260504004936 59 301 4.3 9.6 0.00 0.00 0.00 30 1013.0
20260504004434 59 291 5.2 8.7 0.00 0.00 0.00 30 1012.9
20260504003931 60 248 6.1 10.4 0.00 0.00 0.00 29 1013.0
20260504003427 59 298 5.2 11.3 0.00 0.00 0.00 27 1012.8
20260504002924 60 257 0.9 13.0 0.00 0.00 0.00 27 1013.2
20260504002421 60 298 7.0 14.8 0.00 0.00 0.00 26 1012.8
20260504001918 61 270 4.3 14.8 0.00 0.00 0.00 26 1013.0
20260504001416 61 279 9.6 15.6 0.00 0.00 0.00 26 1012.8
20260504000912 61 273 7.0 9.6 0.00 0.00 0.00 28 1012.9
20260504000409 61 249 5.2 15.6 0.00 0.00 0.00 28 1012.9
20260503235907 62 250 8.7 13.0 0.00 0.00 0.00 28 1012.9
20260503235404 62 287 3.5 16.5 0.00 0.00 0.00 29 1012.9
20260503234902 62 261 4.3 14.8 0.00 0.00 0.00 29 1013.3
20260503234359 61 227 9.6 17.4 0.00 0.00 0.00 30 1013.0
20260503233856 60 18 2.6 13.0 0.00 0.00 0.00 30 1012.9
20260503233353 60 328 7.8 17.4 0.00 0.00 0.00 30 1013.5
20260503232849 60 277 7.0 12.2 0.00 0.00 0.00 29 1012.9
20260503232346 61 274 4.3 14.8 0.00 0.00 0.00 29 1013.2
20260503231845 62 291 6.1 11.3 0.00 0.00 0.00 30 1013.0
20260503231341 62 221 6.1 11.3 0.00 0.00 0.00 29 1013.3
20260503230837 62 263 11.3 15.6 0.00 0.00 0.00 29 1013.3
20260503230334 61 324 9.6 15.6 0.00 0.00 0.00 31 1013.3
20260503225832 61 248 4.3 18.2 0.00 0.00 0.00 29 1013.4
20260503225328 62 313 8.7 14.8 0.00 0.00 0.00 31 1013.0
20260503224824 62 232 7.0 11.3 0.00 0.00 0.00 31 1013.2
20260503224322 62 272 6.1 17.4 0.00 0.00 0.00 30 1013.4
20260503223819 61 299 6.1 15.6 0.00 0.00 0.00 30 1013.4
20260503223317 61 236 6.1 11.3 0.00 0.00 0.00 31 1013.2
20260503222812 62 317 7.0 12.2 0.00 0.00 0.00 32 1013.3
20260503222311 60 232 7.0 16.5 0.00 0.00 0.00 31 1013.5
20260503221809 61 289 7.0 14.8 0.00 0.00 0.00 33 1013.7
20260503221307 61 266 0.0 8.7 0.00 0.00 0.00 36 1013.3
20260503220802 60 303 4.3 14.8 0.00 0.00 0.00 33 1013.5
20260503220300 60 278 4.3 7.8 0.00 0.00 0.00 34 1013.8
20260503215756 60 286 4.3 12.2 0.00 0.00 0.00 34 1014.1
20260503215253 60 328 6.1 12.2 0.00 0.00 0.00 33 1014.1
20260503214751 60 317 5.2 13.0 0.00 0.00 0.00 33 1013.8
20260503214248 60 264 1.7 13.9 0.00 0.00 0.00 34 1013.9
20260503213746 59 246 4.3 8.7 0.00 0.00 0.00 37 1014.2
20260503213243 59 325 0.9 8.7 0.00 0.00 0.00 35 1014.3
20260503212740 59 311 8.7 10.4 0.00 0.00 0.00 36 1014.3
20260503212238 60 253 6.1 10.4 0.00 0.00 0.00 36 1014.4
20260503211735 60 303 7.0 19.1 0.00 0.00 0.00 35 1014.3
20260503211231 61 221 7.0 13.0 0.00 0.00 0.00 35 1014.4
20260503210726 62 252 10.4 18.2 0.00 0.00 0.00 34 1014.6
20260503210224 62 229 8.7 11.3 0.00 0.00 0.00 34 1014.4
20260503205720 60 265 4.3 14.8 0.00 0.00 0.00 35 1014.6
20260503205216 63 321 4.3 18.2 0.00 0.00 0.00 35 1014.8
20260503204712 63 295 3.5 16.5 0.00 0.00 0.00 35 1014.7
20260503204210 61 242 6.1 20.9 0.00 0.00 0.00 33 1014.8
20260503203707 61 311 2.6 13.0 0.00 0.00 0.00 35 1014.9
20260503203205 60 263 2.6 15.6 0.00 0.00 0.00 36 1015.1
20260503202702 63 229 9.6 16.5 0.00 0.00 0.00 34 1014.9
20260503202200 61 338 5.2 13.9 0.00 0.00 0.00 37 1015.1
20260503201657 61 235 6.1 10.4 0.00 0.00 0.00 38 1015.2
20260503201155 59 238 6.1 19.1 0.00 0.00 0.00 36 1015.2
20260503200650 59 251 4.3 12.2 0.00 0.00 0.00 37 1015.6
20260503200147 59 279 8.7 15.6 0.00 0.00 0.00 37 1015.7
20260503195644 59 285 7.8 20.0 0.00 0.00 0.00 35 1015.6
20260503195141 63 276 3.5 10.4 0.00 0.00 0.00 36 1015.3
20260503194638 62 286 2.6 11.3 0.00 0.00 0.00 36 1015.7
20260503194133 60 270 7.0 12.2 0.00 0.00 0.00 36 1015.9
20260503193631 59 267 8.7 16.5 0.00 0.00 0.00 36 1015.7
20260503193126 61 311 7.0 13.9 0.00 0.00 0.00 36 1015.6
20260503192622 62 331 7.0 20.9 0.00 0.00 0.00 35 1015.8
20260503192118 61 322 8.7 14.8 0.00 0.00 0.00 35 1015.8
20260503191615 60 330 10.4 18.2 0.00 0.00 0.00 35 1015.8
20260503191111 60 263 4.3 20.9 0.00 0.00 0.00 36 1015.9
20260503190609 60 250 6.1 18.2 0.00 0.00 0.00 35 1015.8
20260503190106 60 309 2.6 15.6 0.00 0.00 0.00 36 1016.1